Theta_e
306 307 309 308 310 299 304 305 302 305 312 308 306 303 302 303 302 300 309 307 310 315 315 318 321 321 321 325 323 323 325 327 330 329 330 331 332 334 336 338 339 342 344 345 345 346 345 346 348 349 353 354 354 354 355 357 358 360 360 360 360 361 362
305 309 310 309 309 310 305 301 306 308 310 311 307 298 302 299 296 301 304 303 306 305 303 323 318 318 319 322 323 322 325 327 327 327 330 331 331 333 337 340 342 343 343 344 344 345 346 346 348 350 354 355 355 356 356 356 358 358 359 360 359 360 361
306 306 307 306 309 311 307 306 312 304 300 300 311 305 296 295 295 297 302 305 305 307 306 314 315 317 319 323 326 322 322 324 325 327 330 332 333 333 335 337 340 341 342 343 345 345 346 348 351 353 354 353 354 356 356 355 356 357 359 359 360 360 361
305 305 305 298 302 306 305 309 307 310 308 306 302 303 308 302 297 296 298 301 300 310 311 313 312 320 326 323 325 321 322 324 325 327 328 331 332 333 334 335 337 340 341 342 343 344 345 347 350 351 351 351 351 353 355 355 356 359 359 359 360 357 357
303 299 302 300 303 301 302 304 303 305 306 308 309 307 303 300 299 298 297 297 303 311 317 315 318 320 324 323 322 329 325 325 325 327 328 331 333 333 334 335 337 338 340 341 343 345 346 348 350 350 349 350 351 352 353 354 355 356 356 358 358 357 356
299 301 305 305 305 305 304 303 303 304 303 301 298 298 304 304 301 297 298 296 307 312 319 320 320 323 322 324 326 326 327 326 327 327 329 332 333 335 336 336 337 338 340 342 343 345 347 347 347 348 349 350 351 351 352 353 353 354 353 356 357 356 356
301 304 306 307 307 307 306 306 304 307 306 306 302 295 300 302 303 305 306 300 304 317 319 319 322 322 320 322 323 324 325 328 327 328 328 332 335 335 335 336 337 338 341 343 344 346 348 348 349 348 349 349 350 351 352 353 352 353 354 355 356 356 354
306 307 306 306 305 305 303 305 307 306 304 305 304 304 309 302 304 301 301 299 304 318 327 323 320 325 324 326 321 324 324 326 327 327 327 330 334 336 336 338 338 340 342 345 347 348 349 350 350 349 349 350 350 351 352 352 352 353 354 355 353 354 353
299 301 304 303 305 304 302 302 305 306 307 307 308 310 311 303 305 303 301 295 302 316 325 324 321 318 317 319 321 324 324 328 327 328 329 331 335 337 335 337 340 342 341 344 347 348 350 351 349 351 350 350 350 351 351 352 353 354 355 355 353 352 352
290 290 291 294 298 300 303 305 304 305 305 305 305 301 305 297 308 306 301 300 310 318 322 321 322 322 321 321 321 323 325 328 327 328 329 333 335 337 337 339 340 340 343 346 348 349 350 350 349 351 352 350 350 351 352 353 353 354 354 354 352 350 349
296 299 304 309 307 304 300 302 303 303 304 306 307 309 304 299 304 304 305 308 309 313 314 318 319 323 320 320 324 323 325 327 329 333 333 331 335 336 335 338 340 345 346 345 347 350 349 348 350 350 349 349 350 352 353 352 353 353 355 353 352 349 348
305 305 305 307 305 302 303 302 302 304 304 304 304 303 300 311 303 297 307 314 308 311 316 319 321 322 326 328 330 327 329 330 329 330 335 335 332 334 337 338 339 341 344 347 347 348 348 348 351 350 350 350 351 353 352 352 352 353 354 353 351 349 348
305 305 305 306 305 304 304 304 304 303 304 304 302 305 306 312 302 299 309 314 313 312 313 318 321 324 326 324 328 328 329 330 331 332 330 329 329 332 333 337 341 342 343 346 347 347 348 349 349 350 350 351 352 354 352 353 352 352 355 354 351 348 347
303 304 304 305 304 304 304 304 304 305 304 304 304 305 307 308 308 308 311 316 312 313 314 317 321 325 324 328 330 328 326 325 330 329 331 328 329 330 332 336 337 342 343 345 347 348 350 349 350 349 350 352 351 350 350 351 352 352 356 355 351 348 346
301 303 304 304 303 303 302 304 304 305 305 305 305 305 306 309 307 308 309 316 315 316 320 321 326 333 324 324 321 323 327 328 328 328 328 329 329 330 334 338 338 340 343 344 346 347 348 349 349 350 351 351 351 349 350 350 352 353 355 355 352 349 347
300 303 302 302 303 302 302 302 303 304 303 302 304 304 308 307 308 311 309 309 310 317 320 320 322 322 323 322 326 327 328 327 330 329 329 330 332 332 333 336 337 339 340 342 344 345 345 347 350 350 352 351 350 349 350 350 350 352 353 354 351 351 349
300 304 303 302 302 301 298 299 302 305 304 305 306 306 309 308 309 307 306 306 314 318 321 319 320 318 321 323 324 328 329 332 330 330 331 332 332 333 337 338 337 336 336 339 343 343 344 345 347 349 352 349 350 351 351 351 352 352 351 352 353 351 349
301 304 302 302 298 292 294 306 308 307 305 305 304 303 305 309 311 310 313 314 317 320 321 317 319 320 322 327 329 332 333 333 331 330 333 333 333 334 335 335 335 337 339 339 341 343 346 347 346 348 350 349 351 351 351 354 352 353 353 353 353 351 349
300 302 301 297 292 295 308 313 314 309 308 308 306 307 308 309 311 314 314 316 321 322 319 321 321 323 328 325 322 323 325 330 332 333 331 334 336 335 335 336 335 340 341 343 342 342 341 341 345 347 347 349 351 350 352 352 353 355 354 353 352 350 348
303 300 300 292 295 307 312 311 314 312 309 309 308 306 311 314 311 314 313 316 318 322 322 321 325 325 321 322 325 326 326 326 327 327 329 331 332 333 334 338 340 342 338 340 338 341 342 343 343 344 346 347 347 347 350 351 351 353 353 352 350 349 347
298 300 299 298 308 305 308 307 309 310 308 306 305 301 306 314 316 315 314 316 318 320 319 320 320 320 319 321 324 321 322 326 326 326 328 329 331 333 338 337 339 343 343 342 341 346 344 343 345 344 346 346 346 347 347 349 352 350 351 350 349 348 346
303 299 297 298 298 295 304 312 315 316 314 316 317 313 310 318 318 318 318 318 320 320 320 319 320 322 319 316 319 323 321 323 324 326 328 329 331 334 335 340 341 343 343 345 347 344 345 344 345 346 346 346 349 349 348 350 349 349 348 348 348 348 346
303 301 297 296 295 300 313 312 313 315 315 315 317 309 304 318 318 318 318 318 320 321 320 321 321 317 314 315 324 322 323 323 324 325 327 329 332 335 337 338 339 340 345 346 343 348 346 343 344 347 348 348 348 349 349 347 347 347 347 348 348 347 346
303 302 298 297 302 302 311 312 313 314 316 315 312 300 302 317 317 319 318 317 319 319 322 321 320 317 313 318 322 320 322 324 326 330 330 332 334 335 336 339 344 347 347 346 345 344 345 346 346 349 350 350 351 350 347 346 346 346 348 349 349 348 347
303 301 301 303 306 314 312 312 313 314 315 312 304 297 310 317 318 318 319 317 319 321 320 320 319 318 322 321 322 324 326 329 332 336 338 339 340 338 338 339 342 342 342 342 341 342 344 345 344 346 348 349 348 349 348 347 346 347 347 348 347 346 346
302 304 299 300 306 311 311 314 313 316 310 302 303 316 315 318 317 317 317 317 319 322 323 323 321 320 323 325 327 328 329 331 334 335 335 335 336 338 340 342 340 340 342 344 342 342 345 345 345 345 347 346 346 346 346 346 347 346 347 347 346 345 345
304 304 301 297 293 311 313 311 314 316 309 312 315 317 318 319 319 319 320 320 321 322 320 322 322 323 324 326 328 330 332 334 335 336 336 336 336 337 338 338 338 338 339 339 338 338 339 341 343 343 346 345 345 345 344 346 345 346 346 346 345 345 344
304 302 299 297 308 311 314 311 307 314 316 318 321 319 317 320 320 320 320 322 323 323 322 321 322 324 326 327 328 328 329 331 334 336 338 338 336 333 333 333 335 337 337 337 337 339 339 340 340 341 345 345 344 343 344 345 344 345 346 346 345 344 343
308 307 312 315 316 315 314 313 313 314 316 317 319 320 319 318 319 323 321 322 323 324 323 323 323 322 323 323 323 324 325 327 329 330 334 336 336 335 334 332 336 336 337 336 335 336 337 338 340 341 344 344 343 343 343 343 344 344 345 345 344 343 342
313 313 314 317 316 313 313 314 315 315 316 317 318 317 316 317 319 321 321 322 324 325 328 324 325 323 323 322 322 323 325 326 329 334 334 334 336 335 336 338 339 338 339 342 341 338 338 339 340 341 342 344 342 344 342 343 344 345 345 344 343 342 342
307 301 316 312 311 312 312 313 315 316 316 317 319 319 319 319 319 320 321 322 323 325 327 326 324 322 322 323 326 329 330 329 331 332 335 336 337 338 336 336 337 338 332 333 340 340 338 337 338 338 339 340 344 343 341 343 344 345 344 343 341 342 340
310 310 312 312 315 313 314 313 313 313 314 315 317 318 319 320 320 320 322 323 323 324 324 327 325 324 326 326 325 324 326 328 330 331 333 335 335 336 337 337 338 337 337 337 337 337 338 338 338 338 338 339 340 340 339 339 340 343 342 340 339 339 339
308 312 313 315 317 315 312 314 313 314 314 315 315 317 316 316 316 316 318 320 322 324 325 328 328 327 328 329 329 326 328 330 330 331 333 335 335 336 335 336 338 337 336 336 336 335 335 336 336 337 338 337 337 339 337 339 341 341 339 339 339 338 337
305 306 308 313 306 308 310 310 313 314 315 314 313 313 313 314 314 313 313 314 315 316 318 320 322 323 325 328 331 330 331 332 334 336 336 337 337 337 338 337 337 338 337 337 337 337 337 335 335 336 337 338 337 336 337 338 340 340 339 337 337 336 336
303 308 312 312 314 312 314 315 316 315 315 314 313 312 312 313 314 314 313 312 313 313 314 316 316 317 318 319 322 323 327 331 334 336 337 337 336 335 336 337 337 337 337 337 336 335 333 331 331 331 333 334 337 336 338 339 339 340 339 337 335 335 335
305 308 309 312 314 310 313 314 315 316 319 315 312 313 314 314 314 314 313 314 313 313 314 314 316 317 317 318 318 319 320 322 327 331 334 335 335 334 334 334 335 335 335 335 334 331 328 328 328 330 330 333 336 336 338 339 340 340 339 337 336 335 336
304 309 310 311 310 309 311 312 313 318 319 314 315 316 314 313 315 316 315 315 315 313 314 314 315 317 317 316 318 319 318 319 322 325 330 332 331 332 331 332 333 334 334 333 329 327 326 328 328 330 331 333 336 336 339 340 339 339 339 338 337 336 336
Wind_Speed
10 12 8 8 11 12 7 5 14 8 6 12 5 3 5 4 1 7 5 4 5 5 11 14 11 7 13 7 8 11 14 13 12 13 16 19 19 19 18 18 17 18 17 17 17 17 16 17 16 17 16 16 18 17 16 17 16 14 14 15 14 13 12
9 6 12 12 13 3 7 11 9 6 4 3 6 9 4 7 10 5 6 9 6 4 5 1 2 8 13 11 11 11 10 12 15 16 15 17 19 20 19 18 17 18 20 21 20 18 19 19 19 18 18 18 17 16 17 17 15 16 15 14 15 13 13
11 5 5 9 12 7 9 7 12 13 7 11 1 3 8 9 10 7 4 8 9 8 7 1 5 5 9 11 7 7 11 14 17 15 16 17 18 17 16 18 15 16 17 19 19 20 20 20 18 18 18 18 15 15 16 17 18 18 16 12 11 10 11
7 9 10 16 14 6 3 2 12 1 5 7 8 7 0 5 10 4 8 6 10 7 7 8 12 9 8 10 5 11 13 16 15 15 15 15 15 16 17 17 17 19 21 21 21 20 21 20 18 17 18 17 19 18 16 16 16 14 13 14 13 12 12
5 11 9 16 14 14 8 8 9 5 3 3 2 3 9 9 8 7 8 8 5 5 6 11 12 12 12 11 13 8 10 14 16 15 14 13 16 16 17 18 19 21 20 20 20 20 20 19 18 18 18 19 19 18 18 19 17 17 17 15 14 14 13
9 10 9 12 16 15 12 12 10 11 9 9 13 11 3 3 9 3 8 14 3 7 6 10 12 13 13 13 12 10 11 12 12 11 13 13 14 16 18 19 19 19 18 18 18 17 16 16 16 18 16 16 17 17 17 18 18 16 17 15 14 15 14
12 13 9 8 8 13 15 14 12 14 13 11 11 13 7 2 4 3 2 6 7 7 10 11 10 10 12 12 6 9 9 8 8 10 11 12 14 15 17 18 17 17 17 17 17 18 18 18 17 18 17 16 17 18 18 17 17 17 17 15 13 12 12
4 3 3 1 2 7 12 16 15 15 17 18 15 11 6 9 6 7 4 8 4 5 1 6 9 9 6 4 6 10 10 6 6 9 11 12 12 13 12 12 12 12 13 14 12 13 13 13 14 16 16 16 16 17 17 16 17 17 16 14 15 15 14
7 11 7 7 2 5 9 10 13 15 15 16 9 5 3 11 12 12 8 13 6 5 1 1 4 8 11 12 10 8 10 7 6 8 9 10 11 9 11 12 13 12 13 15 13 13 13 12 14 14 15 15 16 15 15 15 14 14 15 14 15 15 15
13 13 15 17 12 11 5 4 8 12 21 20 6 13 4 10 6 15 12 11 5 2 1 3 4 5 10 13 11 7 8 8 6 7 8 8 10 11 12 11 11 15 14 12 11 12 11 13 14 13 14 16 16 14 14 13 12 13 16 14 15 14 14
14 11 7 2 3 5 12 10 12 10 11 15 14 3 7 11 5 8 8 8 6 9 9 7 8 7 12 14 12 10 11 11 9 7 8 10 10 10 14 14 12 8 8 14 14 13 14 15 15 14 16 15 15 13 13 13 12 14 15 13 13 14 15
15 16 16 11 15 14 13 14 15 15 16 15 16 15 16 7 6 11 9 9 12 11 10 10 11 11 9 10 9 8 7 9 10 9 6 6 8 10 8 9 11 15 14 12 13 14 14 14 13 13 14 14 13 12 13 13 13 14 12 12 12 13 15
19 20 19 14 11 16 14 17 15 17 17 17 20 17 15 11 13 16 9 8 12 12 13 11 13 13 13 14 14 15 9 2 3 5 9 12 14 12 14 15 14 12 13 13 14 15 14 14 14 15 13 12 11 10 11 13 14 16 13 12 13 14 14
17 19 19 13 15 12 14 16 17 17 18 19 20 19 18 16 14 15 11 14 16 14 13 13 12 13 14 11 2 2 3 9 10 11 11 14 14 15 16 16 16 14 13 13 13 13 13 14 14 14 13 12 13 14 14 14 14 14 12 12 13 14 15
14 17 16 12 14 15 17 16 15 17 18 19 21 20 18 16 18 17 15 14 13 11 12 13 9 1 2 2 7 12 11 9 11 13 14 14 15 16 15 12 12 12 12 12 12 13 14 15 15 14 13 13 12 13 13 14 13 13 13 12 13 13 13
8 10 13 13 14 16 19 20 18 14 14 15 11 12 6 11 10 9 4 7 9 7 8 7 4 5 7 11 11 10 9 11 11 13 14 13 14 14 14 13 12 12 13 13 14 15 16 16 15 13 12 11 11 12 12 13 13 12 12 12 13 12 12
9 6 9 14 14 10 13 17 18 15 12 10 11 13 12 15 15 12 11 11 7 10 8 10 9 10 11 11 11 9 8 8 12 14 14 15 15 15 13 12 14 15 16 16 15 15 15 14 14 15 12 11 12 11 11 12 11 13 14 14 12 12 12
6 5 4 5 6 10 10 10 18 18 17 15 13 13 13 13 12 9 11 11 11 11 6 9 11 10 11 12 13 11 10 11 13 15 13 15 15 13 12 13 15 14 11 11 12 13 11 11 11 9 11 11 11 12 12 11 13 12 13 12 12 12 11
5 3 6 6 12 11 7 5 3 13 19 19 21 19 18 17 17 9 6 8 8 10 13 13 15 14 6 3 6 8 8 5 8 12 14 13 11 12 13 13 13 11 11 9 9 9 10 11 10 10 10 12 11 11 12 13 12 12 12 11 11 11 12
1 2 4 5 5 3 4 3 2 3 5 9 13 15 5 5 13 14 14 13 14 12 9 8 2 1 2 1 1 3 5 7 9 9 10 9 9 12 14 16 12 12 13 13 13 11 10 11 12 12 12 12 12 12 12 12 11 11 11 11 11 11 12
4 2 3 8 6 7 3 2 4 6 7 11 14 11 14 14 12 13 14 15 12 6 6 5 3 2 3 5 4 0 4 5 7 10 9 7 7 3 3 3 8 8 8 10 11 11 11 11 11 11 11 11 11 10 11 9 9 10 10 10 11 12 13
1 7 8 6 6 10 7 3 4 4 6 6 4 7 8 5 9 11 12 13 11 9 5 5 6 6 5 5 6 3 1 4 5 3 5 7 9 11 11 8 9 10 10 9 9 10 11 10 10 9 11 11 10 10 10 9 10 10 11 12 12 12 12
2 3 4 5 8 5 5 5 6 7 8 7 4 6 11 6 10 10 11 11 8 9 9 8 9 8 7 7 4 3 0 2 4 5 4 6 7 7 9 12 12 11 9 8 9 7 9 10 8 10 11 12 11 10 10 10 11 11 12 12 11 10 9
2 2 2 6 4 3 5 9 11 12 10 4 5 10 7 6 6 7 9 11 9 9 9 11 10 9 10 6 4 2 2 3 5 5 7 8 8 8 8 8 9 10 10 12 10 8 7 7 7 7 8 8 8 8 8 9 10 10 6 4 6 8 9
3 2 3 4 5 1 8 13 16 14 6 3 8 10 3 2 1 4 6 8 8 8 11 10 7 2 3 6 7 7 7 9 10 10 10 10 9 10 12 12 12 12 12 11 9 9 8 9 8 7 7 6 6 5 6 7 7 5 6 8 9 8 9
5 1 3 6 6 3 10 16 17 9 5 9 12 1 1 3 2 4 4 5 6 7 7 6 8 9 9 11 11 12 12 12 11 12 13 14 14 13 13 11 11 11 10 9 10 10 8 10 10 9 9 7 6 6 6 7 6 5 7 8 8 9 10
2 1 1 4 5 3 18 21 12 2 6 2 2 2 6 4 7 9 8 5 6 10 12 12 13 14 14 15 15 14 12 13 13 13 13 12 11 11 11 10 10 12 10 10 10 9 7 8 6 7 8 8 7 7 7 7 5 6 7 9 10 10 11
2 2 2 2 2 10 14 11 6 7 6 4 1 5 7 8 10 10 9 9 8 10 14 16 14 14 16 14 15 16 14 13 13 13 12 12 12 13 13 13 12 13 11 10 10 8 7 6 5 4 6 6 6 7 8 7 7 8 9 10 11 11 11
2 2 3 1 4 8 10 9 8 8 7 5 6 6 8 10 9 7 10 11 9 11 16 15 14 14 12 15 16 17 14 14 13 13 11 10 10 10 10 11 10 11 11 11 10 9 7 7 5 4 3 5 7 7 7 7 8 9 10 11 11 12 12
4 6 3 2 6 8 11 10 9 10 8 8 7 7 10 9 8 8 8 7 8 8 6 13 12 13 11 12 11 11 12 12 10 7 8 8 8 9 9 6 5 8 8 8 9 11 8 7 6 5 5 5 6 6 7 7 7 8 9 10 10 11 11
5 3 2 5 6 7 10 11 11 8 8 6 6 9 10 8 8 9 10 9 10 9 11 13 12 13 13 13 11 9 9 11 10 10 9 9 10 10 10 8 7 8 8 8 7 8 9 7 5 4 3 2 4 6 8 8 8 8 9 10 10 10 12
3 6 9 8 7 4 5 7 8 8 10 10 10 10 11 11 12 11 10 12 12 12 12 10 12 12 12 12 10 10 9 8 9 8 8 8 9 8 8 8 8 8 9 9 9 9 8 6 4 2 3 3 5 6 7 7 8 8 8 8 9 11 14
3 7 4 5 11 8 9 9 9 7 6 6 10 12 15 16 16 16 16 15 13 13 12 12 12 13 12 11 11 12 9 9 8 8 7 8 8 8 10 9 9 7 7 9 9 8 6 4 2 0 1 2 4 5 5 6 7 8 8 8 8 12 12
3 1 7 6 9 4 4 6 7 7 7 6 11 13 16 16 15 14 16 16 15 15 15 14 14 14 12 13 13 13 10 9 8 7 7 6 7 7 5 5 7 8 8 6 5 5 4 2 1 1 1 1 2 3 4 5 6 7 8 8 9 10 10
1 5 2 6 3 12 9 2 4 6 7 6 12 12 13 13 14 13 14 15 15 16 14 12 14 12 11 9 9 11 10 9 7 7 7 7 6 7 7 7 7 6 6 5 5 4 3 1 1 0 0 1 2 3 5 6 7 8 9 8 8 8 9
6 6 9 10 4 8 8 4 3 5 6 9 12 11 11 12 14 15 15 12 13 12 13 14 13 11 11 10 11 11 10 10 10 9 7 7 6 5 4 4 4 4 4 4 4 4 3 3 2 2 3 3 4 6 7 7 7 8 9 8 8 8 8
5 7 14 14 12 12 6 5 6 5 4 7 10 10 10 11 11 12 13 11 12 12 12 12 11 10 11 11 10 9 8 8 8 6 5 5 5 5 5 4 3 2 3 3 4 4 5 5 5 4 4 4 5 6 7 7 8 8 7 7 8 8 8
Wind_Direction
189 192 157 196 164 213 150 165 209 209 124 183 83 61 20 59 206 230 148 252 244 298 284 267 262 258 264 235 231 209 212 198 183 196 201 204 206 205 203 202 200 196 194 198 200 199 197 195 193 194 191 190 195 197 199 200 201 197 191 193 196 194 193
217 205 190 188 208 190 119 206 196 84 7 330 184 221 127 218 226 212 169 208 228 170 255 149 291 237 250 243 224 213 201 183 194 204 197 197 200 199 198 196 194 192 195 198 199 198 196 194 193 194 192 192 195 196 197 198 197 199 198 193 193 191 191
180 163 192 215 209 196 223 228 130 187 167 203 133 191 204 193 218 229 187 220 243 202 229 292 260 233 248 252 208 182 193 199 209 208 203 200 198 197 200 202 198 199 203 203 199 196 196 196 192 192 194 193 195 196 199 200 199 201 198 191 189 188 188
157 170 179 216 200 188 24 102 180 346 183 193 171 196 36 193 237 210 224 177 229 186 216 200 241 257 260 266 227 201 204 201 206 209 205 193 188 196 198 199 199 200 204 203 197 195 196 198 197 200 197 195 199 199 197 201 203 196 189 183 176 176 184
141 208 186 215 204 191 188 197 188 181 220 0 244 149 210 200 223 213 236 222 200 180 198 212 221 235 242 240 250 213 212 213 211 205 196 185 191 196 196 198 201 203 203 201 199 197 198 197 195 196 196 197 200 198 198 199 197 193 191 186 180 186 188
206 217 186 214 212 209 198 200 196 190 161 170 194 216 103 203 211 200 197 243 188 179 180 200 213 227 231 235 240 239 228 217 210 206 200 187 190 194 194 199 200 200 199 196 196 195 196 197 198 197 198 199 201 201 202 199 200 197 195 188 184 190 192
216 215 190 211 238 222 203 196 202 196 203 196 199 225 176 161 229 53 259 272 246 170 192 201 213 233 236 245 249 257 256 238 216 207 206 197 193 194 200 202 200 197 194 189 188 187 187 191 192 193 196 199 199 201 203 200 198 197 193 188 183 183 186
246 228 92 111 187 214 212 209 207 193 209 205 216 219 132 204 152 201 177 233 233 180 124 223 227 238 266 316 244 244 255 246 215 197 197 192 194 201 203 202 198 193 187 180 179 180 183 185 187 191 195 199 201 204 204 202 200 195 188 187 186 186 188
227 231 210 210 124 212 214 210 206 204 209 210 220 85 83 223 183 197 187 236 186 194 129 222 251 258 255 252 246 234 254 255 228 208 198 196 193 184 193 195 190 181 182 185 185 187 188 186 192 193 197 201 204 206 205 203 200 192 190 192 187 185 182
217 208 208 212 200 202 202 240 211 208 208 207 158 208 160 226 161 199 215 228 156 183 284 220 242 248 256 253 253 248 242 256 237 212 200 197 187 188 189 185 182 191 192 183 182 187 185 188 193 192 197 204 207 206 204 198 194 191 195 193 186 179 173
222 228 226 176 136 139 217 195 211 201 225 214 202 193 205 215 147 209 209 218 190 200 205 210 228 229 237 246 241 230 235 236 227 205 200 197 192 186 189 188 193 172 172 188 186 182 188 192 194 195 200 205 206 202 198 194 195 195 195 189 175 176 172
220 216 213 196 195 213 207 211 207 198 196 204 211 203 222 143 120 231 201 194 220 211 197 201 221 225 235 250 250 242 234 233 219 207 196 196 182 187 179 183 185 193 191 179 179 185 189 192 193 195 200 203 200 197 191 190 194 195 190 180 167 170 171
218 224 223 200 196 215 209 215 210 201 193 194 209 216 219 157 211 232 194 168 212 215 212 204 215 214 215 223 226 223 224 202 171 174 192 201 200 187 185 194 195 185 182 182 182 184 189 190 192 196 198 200 196 188 191 193 198 201 194 175 171 171 172
218 223 224 202 201 213 217 213 211 204 197 199 205 211 214 203 224 232 218 182 209 211 210 214 219 217 216 222 215 61 218 215 199 200 200 202 199 193 194 196 194 188 185 176 178 181 181 187 189 193 194 193 194 195 196 195 198 203 183 175 171 179 183
232 233 230 212 206 215 225 219 211 207 203 203 202 209 209 202 218 218 215 198 215 213 215 217 215 19 15 356 230 226 219 209 198 202 204 201 201 204 201 190 184 179 177 174 174 179 184 189 191 193 196 196 194 199 199 200 197 197 186 177 179 180 185
240 230 226 215 212 215 225 230 222 205 201 207 210 221 177 188 201 207 184 222 227 223 222 246 247 203 201 216 220 217 213 205 195 201 205 201 202 202 199 191 178 172 179 176 180 185 188 191 191 192 190 184 181 196 197 199 198 192 189 186 186 184 180
254 232 202 215 206 210 231 230 229 216 198 203 202 214 194 199 196 204 208 227 209 221 204 214 225 215 217 224 228 228 222 204 200 202 203 203 199 199 191 174 177 182 184 185 185 187 189 188 191 194 176 176 183 182 185 189 186 188 189 188 182 180 179
272 291 199 139 154 218 224 218 217 211 209 202 210 211 208 216 206 209 205 213 218 216 171 201 221 216 220 217 227 218 207 188 197 210 215 210 200 194 191 185 181 184 179 181 186 183 178 177 179 171 174 177 181 187 188 179 183 187 185 186 180 180 174
292 88 146 184 226 235 221 195 188 213 218 209 210 214 207 205 206 210 226 232 220 207 204 203 213 219 208 1 309 281 249 235 217 209 209 204 185 179 177 170 188 184 175 162 150 148 166 168 156 157 174 187 179 181 183 183 185 180 183 179 179 175 175
210 236 204 241 238 298 345 346 138 121 213 227 223 235 261 235 211 204 216 214 219 215 213 225 238 268 225 265 289 282 265 223 218 218 225 217 202 192 183 179 176 161 171 168 168 163 152 152 172 182 181 181 182 188 187 185 184 183 177 177 178 174 177
289 333 280 276 341 289 217 226 176 178 177 172 184 213 228 203 198 197 211 224 222 200 213 202 188 173 176 223 226 208 256 244 231 220 216 189 192 193 23 166 149 139 140 149 156 153 166 172 165 177 170 173 176 174 179 182 170 174 176 180 183 181 184
262 299 299 279 260 260 224 154 32 4 331 307 304 216 223 151 193 200 209 224 218 212 185 177 163 162 177 219 226 164 240 214 216 227 211 184 181 173 160 140 144 156 161 155 151 161 156 163 162 159 158 163 161 163 174 168 169 174 182 191 188 186 186
200 218 264 274 279 268 38 45 3 351 332 303 249 200 228 167 187 191 203 219 216 201 184 156 157 173 201 221 184 78 215 187 185 166 156 155 150 151 153 157 157 159 147 137 137 129 143 148 153 155 159 160 160 170 171 172 176 181 193 193 187 181 169
220 251 259 290 259 307 26 350 337 326 322 310 217 210 213 148 174 180 191 210 202 182 166 156 174 183 203 212 94 59 77 94 100 120 132 124 123 124 115 93 93 95 98 94 92 111 116 108 129 142 147 156 158 158 163 165 180 192 185 149 139 146 154
179 172 295 290 257 109 14 344 325 318 283 225 204 209 162 78 192 154 183 207 201 170 152 164 153 24 34 76 100 100 109 93 79 73 76 82 88 101 104 105 107 93 90 96 109 114 112 117 116 120 127 123 132 137 150 169 179 158 129 127 130 140 152
243 306 287 287 303 65 347 341 328 298 202 186 208 82 338 281 91 103 143 166 162 165 139 121 102 113 102 97 94 91 85 88 89 89 87 87 83 79 87 99 107 117 119 116 109 101 115 128 131 132 133 133 140 150 164 178 173 138 129 140 147 155 161
134 160 344 316 270 79 358 342 318 76 281 1 352 66 51 69 82 83 69 88 120 118 100 94 104 108 102 97 92 90 90 87 86 87 86 83 87 95 99 88 82 85 75 69 65 69 66 74 95 122 133 139 149 153 169 168 143 131 138 146 154 161 167
241 107 147 204 1 318 337 344 317 345 321 323 250 76 86 65 75 77 81 62 68 95 109 110 103 105 108 102 100 92 84 84 86 86 88 90 88 83 79 83 85 90 95 93 89 79 79 81 86 115 140 136 144 153 164 152 145 145 149 154 158 164 167
258 213 205 177 36 337 337 336 325 317 334 342 336 58 66 85 69 61 85 89 83 95 103 102 104 91 83 94 92 93 93 84 77 77 76 76 85 91 96 100 104 97 105 112 112 104 100 112 113 111 125 143 147 158 153 153 160 159 160 159 162 168 169
127 61 53 303 48 346 340 337 354 351 358 10 18 58 74 47 61 55 75 61 71 58 40 92 78 84 84 70 64 71 77 83 83 79 79 76 82 86 81 67 88 110 113 111 110 109 106 98 98 118 137 148 153 161 151 166 167 163 158 158 163 167 168
159 106 140 81 40 355 343 346 351 8 3 8 30 59 58 54 56 66 60 67 57 55 59 67 79 79 77 77 70 62 60 60 58 61 60 54 44 46 50 42 30 29 55 61 54 73 84 84 89 99 123 148 152 150 163 170 167 162 160 157 157 163 173
180 134 140 116 88 18 9 1 355 1 14 28 49 64 66 61 55 53 54 61 54 54 51 46 65 57 53 64 61 62 57 61 60 52 50 51 53 49 58 45 45 51 46 53 52 50 57 56 63 83 130 160 157 163 167 170 161 156 154 156 154 164 168
6 66 64 130 96 74 38 16 21 10 356 41 45 60 69 64 55 51 49 51 61 59 54 44 51 56 44 49 59 62 52 47 43 41 37 45 48 43 41 38 45 56 52 55 56 59 60 49 35 130 185 162 160 160 160 159 151 153 148 147 149 161 159
203 179 183 162 121 116 20 18 6 1 351 47 71 62 63 68 67 56 59 54 52 58 56 57 58 57 44 39 46 53 50 47 37 32 33 38 50 54 62 67 56 55 55 65 72 78 86 75 109 237 191 156 145 159 148 147 149 142 146 149 149 153 161
172 4 28 353 66 109 127 117 345 11 349 40 64 67 78 75 75 73 69 67 59 56 54 57 68 68 64 53 52 58 50 46 45 41 36 36 38 38 30 47 51 61 66 79 87 87 85 97 140 226 23 68 137 139 140 149 162 157 154 150 153 151 156
49 45 64 32 47 108 128 144 142 70 352 38 55 55 55 67 74 75 67 61 70 67 60 51 49 61 63 55 59 59 51 41 38 40 40 45 46 52 51 54 71 82 94 105 119 129 136 152 161 177 167 154 156 157 152 159 162 159 162 156 154 154 155
82 67 79 77 76 84 97 98 68 75 89 97 84 57 47 59 59 67 74 66 53 60 64 63 51 46 57 55 50 52 52 48 45 44 53 59 51 51 55 68 88 108 128 138 138 144 155 163 163 161 142 139 147 150 150 152 154 155 160 161 154 150 144